Vertical_Velocity
-1 -3 1 -1 -2 -2 -2 -2 2 2 -4 -0 3 0 -1 -0 1 -1 -0 -1 -0 -1 2 -1 -2 0 -2 -0 -0 0 0 -1 -1 -0 0 -0 -0 -1 -2 -1 -0 1 -0 0 -1 -4 -1 1 1 3 2 -1 1 0
-1 -3 1 -1 -2 -1 -2 -2 1 0 -0 -6 0 2 1 2 1 0 1 -0 -2 -1 -1 1 0 -1 -2 -0 1 -1 0 -1 -1 -2 -1 -0 -1 0 -1 -1 -5 -2 -2 0 -2 -4 -1 -1 1 3 2 5 -1 3
-0 -4 1 -1 -1 -1 -2 -2 -0 -1 -1 -1 -2 -1 1 2 2 2 -0 -1 -2 0 -1 -2 -1 1 1 -0 -2 -1 -2 -0 1 0 -1 -1 -3 -1 -1 3 0 -0 -2 4 0 3 -0 -6 -2 -2 0 3 -1 2
1 -0 -1 -1 -1 -1 -0 -2 -2 -1 0 -0 -0 -1 -0 0 1 2 2 1 -1 0 0 1 -3 -2 -1 -0 1 2 -0 -0 -0 -1 -0 1 -1 1 4 -1 -1 -6 2 -3 10 1 3 -4 -1 0 -4 -0 -0 -2
2 -1 1 1 1 1 0 -0 -3 -1 -0 -1 1 0 -0 -1 1 -1 3 2 -3 -1 1 1 1 -0 -1 -1 -2 -2 -1 -1 -1 -0 3 1 1 -8 4 4 8 -6 1 -0 6 2 -2 -3 -7 2 -1 -2 -1 -2
9 4 2 0 4 1 2 -0 0 1 -0 0 1 0 -1 -1 -4 0 -1 3 0 -3 -2 1 4 1 0 -2 0 1 0 0 0 -2 -2 3 -0 -9 3 7 -3 2 2 0 0 4 1 5 3 1 -1 2 0 1
2 -2 3 4 1 5 6 3 1 3 3 1 -2 -2 -2 0 -1 -2 -3 1 1 1 -3 -5 -1 -0 -3 -3 -2 -1 -0 -1 1 2 3 -1 -2 -11 -0 4 -6 -0 0 1 3 1 2 3 1 4 4 1 1 0
4 2 -1 1 2 3 1 5 2 6 1 -0 -2 -3 -1 -0 1 1 -3 -1 -1 -1 2 -0 -0 -1 -7 -1 -4 -1 0 -2 1 -1 6 -1 3 -8 -1 3 1 2 -4 -2 0 1 -1 0 -1 -2 -1 -2 1 -2
1 -3 -0 3 6 4 6 6 4 6 1 2 1 -0 -3 3 2 -1 -3 1 2 -0 -3 5 -1 -4 1 -3 -5 -3 -4 -1 -5 2 5 -3 9 -5 -4 3 4 2 2 -3 -1 -0 0 1 1 -0 2 1 -4 5
2 -3 3 0 0 4 11 2 1 8 9 10 5 3 -1 10 -2 -0 -0 -5 -1 2 -1 6 -2 -4 -6 4 -0 -6 -3 -0 -14 2 -3 -0 10 -4 -5 6 -2 -2 -1 3 1 0 -2 1 -1 3 2 -1 -6 -4
2 2 3 -2 3 6 -0 7 10 2 4 9 3 0 3 5 2 -1 -7 1 -0 6 6 8 -4 -1 5 -4 0 -5 -4 -5 -11 3 0 -8 12 3 -6 -5 3 -2 -5 -4 -2 -3 -5 -3 1 -1 5 2 -3 -3
0 0 0 1 5 2 5 6 9 5 4 12 1 5 7 6 3 -5 -3 3 14 -7 3 -1 -1 -0 2 1 -2 3 -3 -6 -7 -1 -1 0 6 4 -6 -8 -14 -3 -1 1 -4 3 3 2 -6 -4 -5 -0 -0 -1
3 4 4 2 3 4 7 7 -1 2 8 5 3 5 8 6 -6 -2 -3 11 6 -6 -1 -1 1 -0 2 0 -1 -2 -2 0 2 -5 2 15 2 -3 5 -3 -8 -9 -6 0 4 2 2 1 3 0 -7 1 -10 -11
5 5 6 4 5 9 6 1 4 2 5 7 5 -2 5 -8 -3 6 2 4 1 -2 -1 -1 -4 1 2 -4 -3 -0 -6 -3 -13 -5 11 -5 -4 -2 -3 -1 -1 -3 -5 -1 -3 -1 -1 -5 -6 -0 -4 -10 -8 -4
10 10 7 5 5 4 1 2 6 3 3 3 6 -6 -4 6 -1 4 2 2 -0 -5 -8 -6 -4 2 0 -6 -2 -4 -6 -7 -0 3 -5 -3 -5 -4 -3 -6 -10 -8 1 1 -1 4 3 4 -4 -13 3 -4 -2 -3
6 6 6 6 4 5 4 4 5 2 3 1 -4 -1 5 7 7 4 2 1 -4 -5 -6 -4 -4 -4 -2 -7 -6 -4 -3 10 9 -7 -3 -4 -1 -1 -3 -6 -5 -3 -4 -3 1 2 2 3 -5 -12 -11 5 -5 1
6 5 2 4 3 1 -2 6 -1 4 -6 -7 18 16 5 3 1 -0 2 1 -1 2 -2 -8 -6 -2 -4 -17 -2 1 3 9 1 -5 -7 -5 -2 -0 -1 -1 3 -0 -9 -5 3 -2 -2 1 -3 -7 -11 3 -2 5
5 0 2 3 3 1 1 2 1 -4 1 6 8 4 1 1 2 4 4 -2 -4 -5 -3 -6 -11 -10 -2 3 5 5 -3 3 -0 4 3 2 -2 4 6 -2 -2 -2 -2 3 5 3 5 3 -8 -10 -2 -4 -2 1
1 1 3 3 4 2 1 -3 -2 -4 -1 0 6 5 4 8 8 6 -1 -3 -1 -5 -13 -4 -28 4 8 1 -6 -9 -4 -2 -11 -2 -8 3 5 9 1 3 -2 -0 2 4 4 5 0 4 -14 -6 -3 -8 -7 -2
-2 -0 2 -4 2 -0 -1 -4 -1 -4 -0 2 5 7 2 5 5 8 6 6 -4 -19 -12 -8 -0 -1 -4 -2 -12 -14 -2 -5 3 -9 -1 9 -1 5 5 9 -0 5 3 2 3 1 1 -9 7 -6 -1 -2 -5 -0
-4 2 -5 -4 -3 0 -2 -5 -1 -2 -3 -1 5 1 -2 9 8 10 14 -2 -24 -9 -8 8 2 2 -0 -7 -9 4 -12 1 2 5 -9 -15 5 -1 1 0 5 -1 -6 -3 -4 5 1 -5 -0 -1 -4 3 -1 -1
1 -5 -4 -6 -3 -7 -9 -6 -5 1 -8 1 1 -2 -6 -1 6 15 -6 -22 -18 7 5 10 2 -4 -18 -13 -3 -6 -2 2 3 -6 3 2 -7 -3 -1 2 -5 -1 2 0 5 3 -1 2 -2 -5 -1 3 0 -0
-3 -3 -4 1 -1 -10 -17 -3 -3 -2 -10 5 1 -4 -1 3 6 5 -31 -10 1 22 21 1 -5 -13 -14 -11 -6 1 4 4 -3 4 -5 -2 -1 -5 -7 -8 1 -3 -1 6 5 -5 -2 5 -4 -6 1 4 -1 1
-1 -1 -2 -2 -6 -6 -7 -2 -2 -3 -3 10 4 -7 -1 7 -10 -12 -21 12 24 15 2 -5 -7 -14 -2 -5 -3 0 1 11 -2 -15 -3 -2 -7 -2 -5 -10 -4 -1 4 -1 5 5 2 3 -5 -1 4 4 2 -2
-5 -3 -4 -5 0 2 7 6 4 -3 -1 2 -10 -3 1 1 -15 -14 8 18 6 2 -9 -6 -1 0 -9 -1 4 -6 -4 5 1 -13 -8 8 -14 -5 1 3 -1 2 0 -10 1 0 -2 -6 -2 1 6 4 -1 0
5 1 2 11 8 -0 5 -3 -1 1 -0 -6 -2 -6 -2 -11 -10 2 11 2 -2 1 4 -0 -3 -3 -6 1 -8 -2 -3 17 1 -15 -12 25 -1 -5 -10 -7 1 -1 18 -4 -2 -1 -8 -6 -1 -0 4 6 1 -2
-1 2 3 1 2 2 4 6 2 -3 -1 -1 -0 -4 -9 -8 6 10 -6 9 -5 3 -5 -4 -3 -1 -9 -9 -1 -2 1 9 1 -4 -5 -0 2 7 3 -0 -3 -8 3 1 -6 -0 -10 -2 -8 -2 4 4 2 -1
-1 0 7 4 -1 1 2 -0 -3 -1 1 -0 -4 -4 -10 -6 5 -0 6 8 -7 -7 -7 0 4 2 -3 -2 -1 0 8 7 -4 -8 -4 -2 10 9 8 5 4 4 1 -8 -4 -2 -2 -2 -3 0 1 3 4 -1
4 6 0 2 2 0 -3 -0 2 1 2 -6 -7 -1 -7 6 4 -4 -8 -4 -3 -5 -9 -11 7 1 -3 5 1 6 8 7 -1 -4 2 -2 2 15 4 -3 -3 -4 -1 -3 1 -2 -2 -1 -1 -0 2 0 3 1
3 1 1 -0 -6 -3 9 -3 -6 -1 -3 -2 -7 -11 -0 11 9 -3 -12 0 -0 -8 -5 -1 4 -2 0 1 7 10 9 5 1 -1 -10 -5 -1 2 4 1 -1 1 -2 -2 1 -2 -4 1 -2 1 0 1 -0 2
-2 -3 -3 -5 -1 1 1 -2 0 1 2 3 0 -19 -4 -11 -12 19 -11 -8 -8 -1 -3 -0 2 -0 -3 -1 -3 3 5 5 -0 -7 -10 -1 4 2 0 1 1 -2 -1 -1 -2 -0 -2 -3 -2 1 3 1 2 3
-2 -1 -6 -4 7 6 -1 -1 -5 -2 4 -1 10 -1 3 -5 -16 12 15 1 2 0 1 -0 0 4 -0 -6 -7 -7 -2 3 -4 -2 1 -1 -1 0 2 -0 -1 -2 -2 -2 -2 -5 -3 -1 1 1 0 3 3 1
-5 -2 2 -1 -2 -1 -1 -10 -3 -0 6 5 8 8 10 -7 -8 -1 3 2 1 2 2 5 -2 -1 3 2 2 3 2 4 6 4 -2 0 0 -0 1 -1 -2 -2 -1 -2 -4 -3 1 1 1 1 2 1 2 2
Height
5691 5696 5702 5706 5710 5714 5718 5723 5727 5729 5731 5731 5731 5733 5735 5736 5738 5739 5739 5738 5738 5737 5738 5738 5737 5736 5735 5735 5734 5734 5734 5732 5732 5731 5730 5730 5730 5729 5729 5728 5727 5725 5724 5724 5720 5718 5717 5714 5711 5712 5711 5707 5703 5700
5676 5681 5688 5693 5697 5700 5706 5709 5715 5717 5720 5722 5722 5724 5725 5726 5728 5729 5730 5730 5729 5729 5729 5729 5728 5728 5727 5726 5727 5725 5725 5724 5723 5723 5722 5721 5721 5720 5720 5720 5718 5718 5716 5715 5713 5708 5704 5702 5701 5700 5696 5694 5691 5687
5658 5665 5672 5678 5683 5686 5692 5696 5701 5704 5707 5709 5712 5714 5715 5716 5717 5718 5719 5719 5720 5720 5719 5719 5718 5718 5717 5716 5716 5717 5714 5714 5713 5712 5712 5712 5712 5711 5710 5710 5707 5706 5703 5701 5699 5699 5693 5689 5687 5685 5681 5679 5676 5672
5640 5648 5654 5661 5666 5672 5677 5683 5686 5690 5694 5697 5699 5702 5704 5705 5706 5707 5709 5710 5709 5709 5709 5708 5707 5708 5708 5706 5705 5704 5703 5702 5702 5701 5700 5700 5700 5698 5699 5697 5698 5696 5692 5687 5685 5686 5682 5678 5675 5673 5669 5665 5661 5657
5624 5630 5637 5644 5650 5656 5661 5667 5673 5677 5681 5683 5686 5689 5692 5693 5694 5695 5697 5699 5699 5700 5697 5697 5697 5697 5697 5697 5695 5694 5693 5692 5691 5690 5690 5688 5688 5685 5684 5684 5687 5681 5678 5674 5672 5671 5668 5664 5662 5660 5656 5652 5648 5644
5606 5613 5620 5627 5632 5639 5645 5651 5657 5661 5666 5670 5673 5675 5678 5680 5682 5683 5685 5687 5688 5689 5688 5687 5689 5687 5686 5685 5683 5682 5682 5682 5681 5679 5678 5677 5676 5673 5669 5672 5673 5668 5664 5662 5661 5659 5656 5653 5650 5647 5644 5640 5636 5631
5592 5597 5603 5609 5616 5623 5628 5634 5641 5646 5651 5655 5658 5661 5664 5666 5668 5671 5672 5674 5675 5676 5677 5678 5679 5679 5677 5676 5674 5673 5671 5669 5669 5669 5667 5665 5664 5661 5660 5662 5659 5657 5654 5653 5651 5648 5645 5641 5637 5633 5629 5625 5621 5615
5580 5584 5588 5594 5600 5605 5612 5618 5624 5630 5634 5638 5643 5646 5650 5652 5655 5657 5656 5659 5661 5663 5665 5664 5667 5669 5668 5667 5665 5663 5662 5660 5658 5657 5656 5655 5652 5650 5649 5649 5647 5645 5643 5640 5638 5635 5631 5628 5624 5621 5617 5612 5607 5601
5568 5571 5576 5581 5585 5590 5596 5600 5607 5613 5618 5623 5628 5632 5635 5640 5642 5643 5643 5644 5647 5650 5649 5653 5654 5653 5656 5655 5655 5653 5651 5649 5648 5647 5645 5642 5642 5639 5637 5636 5633 5632 5630 5628 5624 5619 5615 5611 5606 5601 5596 5592 5588 5582
5555 5560 5563 5568 5571 5576 5582 5585 5590 5597 5603 5609 5612 5617 5620 5625 5626 5629 5630 5631 5632 5633 5636 5638 5639 5640 5639 5639 5639 5640 5638 5636 5635 5635 5632 5631 5630 5628 5627 5621 5621 5618 5615 5611 5607 5602 5598 5594 5589 5585 5580 5574 5566 5559
5543 5547 5551 5555 5558 5563 5568 5574 5581 5584 5587 5593 5597 5601 5606 5609 5611 5613 5615 5618 5619 5620 5623 5624 5623 5623 5624 5624 5624 5622 5621 5620 5620 5621 5618 5617 5617 5614 5612 5608 5607 5602 5599 5593 5589 5585 5580 5576 5571 5566 5561 5552 5545 5539
5531 5536 5539 5543 5547 5552 5557 5563 5568 5573 5578 5581 5582 5587 5590 5593 5594 5597 5601 5603 5605 5603 5607 5608 5609 5609 5609 5609 5609 5608 5607 5606 5605 5607 5604 5603 5602 5600 5596 5591 5590 5586 5580 5575 5571 5568 5562 5556 5550 5544 5539 5533 5525 5521
5520 5525 5528 5532 5536 5541 5546 5550 5557 5562 5567 5570 5573 5576 5578 5579 5579 5584 5587 5588 5587 5587 5590 5592 5594 5594 5594 5595 5594 5594 5592 5593 5592 5592 5591 5589 5583 5582 5578 5574 5571 5568 5563 5558 5552 5547 5542 5536 5529 5520 5515 5508 5500 5498
5506 5512 5517 5523 5527 5532 5535 5540 5546 5550 5556 5559 5561 5563 5564 5565 5568 5572 5572 5572 5571 5572 5575 5578 5579 5580 5579 5578 5578 5578 5576 5576 5576 5578 5576 5570 5568 5565 5561 5557 5555 5551 5546 5541 5536 5529 5520 5513 5507 5501 5492 5488 5481 5475
5493 5499 5504 5510 5515 5519 5523 5528 5534 5539 5542 5546 5549 5550 5554 5555 5556 5556 5556 5556 5555 5557 5560 5562 5563 5565 5563 5564 5564 5562 5560 5560 5559 5557 5555 5551 5548 5545 5540 5535 5532 5530 5526 5521 5513 5505 5499 5490 5485 5482 5476 5467 5458 5450
5479 5485 5490 5495 5500 5505 5510 5516 5521 5525 5528 5532 5537 5539 5540 5541 5541 5539 5538 5539 5540 5542 5544 5545 5547 5548 5547 5548 5549 5546 5545 5546 5541 5537 5535 5533 5530 5524 5517 5512 5507 5504 5501 5495 5489 5482 5475 5470 5463 5456 5454 5447 5438 5429
5465 5470 5475 5481 5485 5490 5495 5500 5505 5509 5513 5522 5527 5525 5525 5524 5523 5522 5523 5524 5524 5526 5526 5527 5529 5529 5530 5528 5532 5530 5529 5526 5521 5518 5515 5512 5509 5504 5496 5489 5484 5479 5475 5471 5466 5459 5455 5450 5442 5433 5429 5425 5418 5410
5454 5458 5464 5468 5472 5476 5481 5485 5490 5495 5503 5508 5510 5508 5508 5508 5508 5507 5505 5505 5507 5507 5507 5509 5511 5515 5513 5514 5513 5510 5507 5505 5503 5500 5497 5493 5488 5482 5474 5467 5464 5458 5452 5445 5441 5434 5430 5425 5418 5415 5409 5403 5401 5395
5443 5448 5452 5456 5460 5464 5467 5471 5476 5482 5487 5492 5493 5493 5494 5495 5493 5490 5488 5486 5485 5485 5489 5492 5491 5498 5494 5490 5486 5487 5487 5484 5482 5479 5473 5470 5464 5457 5449 5443 5437 5434 5430 5424 5419 5416 5412 5407 5402 5398 5392 5388 5384 5381
5433 5436 5440 5443 5449 5451 5454 5458 5463 5466 5473 5476 5477 5477 5479 5481 5480 5478 5473 5468 5466 5471 5476 5477 5477 5474 5468 5467 5464 5467 5467 5464 5452 5444 5443 5440 5435 5428 5422 5417 5413 5410 5404 5402 5401 5400 5394 5392 5389 5382 5380 5376 5371 5369
5423 5426 5429 5433 5436 5439 5441 5445 5450 5454 5457 5460 5460 5461 5465 5468 5467 5461 5454 5444 5453 5461 5460 5459 5451 5446 5442 5442 5447 5441 5437 5435 5425 5414 5408 5405 5406 5399 5394 5392 5388 5384 5385 5386 5384 5382 5378 5375 5373 5370 5367 5365 5360 5357
5413 5415 5418 5420 5423 5424 5428 5433 5438 5441 5442 5446 5446 5447 5450 5450 5446 5438 5427 5434 5441 5444 5435 5426 5418 5418 5419 5423 5421 5418 5413 5406 5398 5390 5386 5380 5376 5375 5373 5372 5368 5365 5365 5366 5365 5363 5363 5362 5358 5357 5355 5353 5350 5348
5398 5402 5406 5408 5410 5408 5413 5422 5423 5426 5428 5429 5427 5427 5429 5426 5420 5414 5416 5429 5429 5424 5407 5403 5401 5400 5399 5400 5397 5394 5388 5380 5376 5375 5372 5369 5363 5359 5355 5354 5352 5348 5350 5353 5349 5350 5350 5348 5346 5345 5343 5341 5340 5339
5384 5387 5391 5394 5397 5398 5403 5406 5408 5409 5411 5409 5405 5405 5407 5404 5401 5401 5410 5417 5411 5398 5393 5390 5385 5384 5383 5381 5378 5375 5375 5368 5363 5362 5361 5354 5353 5351 5345 5343 5341 5339 5338 5339 5338 5337 5335 5335 5334 5333 5332 5330 5331 5330
5374 5376 5379 5382 5385 5388 5389 5389 5391 5392 5393 5391 5390 5390 5392 5387 5388 5393 5399 5394 5386 5383 5379 5377 5374 5370 5367 5367 5366 5364 5363 5356 5350 5346 5349 5343 5339 5335 5334 5332 5331 5331 5329 5328 5328 5324 5323 5322 5321 5322 5322 5321 5321 5322
5366 5368 5371 5374 5375 5378 5379 5380 5381 5382 5381 5380 5380 5380 5380 5379 5381 5384 5381 5378 5376 5374 5370 5366 5363 5360 5358 5356 5352 5350 5348 5343 5333 5329 5334 5329 5322 5319 5318 5318 5318 5322 5322 5317 5314 5310 5308 5309 5308 5308 5309 5311 5312 5312
5360 5365 5367 5367 5368 5369 5370 5372 5372 5373 5375 5376 5375 5374 5371 5370 5372 5374 5370 5368 5365 5363 5359 5358 5354 5350 5346 5343 5339 5335 5333 5329 5322 5318 5315 5312 5310 5308 5305 5303 5303 5305 5305 5302 5299 5296 5296 5296 5294 5295 5297 5301 5303 5304
5355 5358 5362 5364 5364 5366 5367 5368 5369 5370 5370 5368 5366 5364 5362 5364 5366 5364 5362 5359 5355 5353 5350 5347 5342 5336 5332 5328 5325 5322 5319 5312 5307 5303 5300 5299 5296 5292 5291 5290 5289 5290 5288 5287 5285 5285 5283 5281 5282 5284 5288 5292 5295 5297
5355 5358 5359 5360 5360 5360 5362 5363 5363 5364 5363 5360 5358 5357 5356 5356 5355 5353 5351 5348 5345 5339 5334 5330 5329 5324 5320 5316 5313 5307 5301 5296 5289 5288 5285 5283 5282 5282 5273 5271 5271 5272 5272 5273 5275 5273 5271 5272 5275 5277 5281 5285 5289 5291
5353 5353 5354 5354 5354 5356 5359 5356 5357 5357 5354 5352 5350 5348 5348 5348 5346 5342 5339 5335 5328 5321 5318 5314 5311 5307 5303 5298 5296 5293 5288 5282 5275 5271 5270 5269 5268 5265 5261 5257 5256 5257 5258 5260 5262 5263 5262 5265 5269 5273 5278 5282 5285 5287
5348 5348 5348 5349 5350 5351 5350 5349 5349 5348 5347 5346 5344 5341 5339 5336 5336 5335 5327 5319 5312 5308 5303 5298 5294 5290 5286 5285 5282 5280 5277 5272 5268 5266 5262 5260 5257 5255 5252 5249 5248 5248 5250 5251 5253 5255 5258 5261 5266 5271 5275 5279 5282 5284
5343 5343 5344 5345 5346 5346 5344 5343 5341 5340 5340 5338 5337 5334 5331 5324 5318 5318 5316 5307 5301 5295 5289 5284 5281 5278 5276 5274 5272 5271 5269 5266 5263 5260 5256 5253 5250 5247 5245 5244 5244 5244 5246 5248 5251 5253 5256 5261 5266 5270 5273 5276 5279 5280
5338 5339 5340 5340 5340 5339 5338 5335 5334 5334 5335 5333 5331 5327 5322 5315 5310 5305 5299 5293 5287 5283 5278 5273 5271 5268 5266 5264 5264 5263 5261 5259 5256 5253 5250 5249 5246 5244 5242 5241 5242 5244 5246 5248 5250 5253 5257 5261 5265 5268 5271 5274 5276 5277